When you browse on this site, cookies collect data to enhance your experience and personalize the content and advertising you see.
Visit our Privacy Policy to learn more. By continuing to use the site, you agree to this use of cookies and data.
  • In Hungary
  • List of Countries
  • For 7 days
  • Water Temperature
  • Weather Map
  • News
  • Weather Widgets
  • user-avatar
    Login

    Hourly Weather Zgoda

    Today, 22 August, Thursday

    Time Temperature Precipitation Wind Pressure Humidity
    00:00 +14°C° 0 mm 3 mps 770 mmHg 85%
    01:00 +13°C° 0 mm 4 mps 770 mmHg 86%
    02:00 +13°C° 0 mm 3 mps 770 mmHg 87%
    03:00 +13°C° 0 mm 3 mps 770 mmHg 88%
    04:00 +13°C° 0 mm 3 mps 770 mmHg 89%
    05:00 +14°C° 0 mm 3 mps 770 mmHg 86%
    06:00 +16°C° 0 mm 3 mps 771 mmHg 83%
    07:00 +17°C° 0 mm 3 mps 771 mmHg 81%
    08:00 +18°C° 0 mm 3 mps 771 mmHg 75%
    09:00 +19°C° 0 mm 2 mps 771 mmHg 69%
    10:00 +20°C° 0 mm 2 mps 771 mmHg 63%
    11:00 +21°C° 0 mm 2 mps 771 mmHg 60%
    12:00 +21°C° 0 mm 2 mps 771 mmHg 57%
    13:00 +23°C° 0 mm 2 mps 771 mmHg 54%
    14:00 +21°C° 0 mm 2 mps 771 mmHg 54%
    15:00 +21°C° 0 mm 2 mps 770 mmHg 53%
    16:00 +21°C° 0 mm 2 mps 770 mmHg 53%
    17:00 +20°C° 0 mm 2 mps 770 mmHg 58%
    18:00 +18°C° 0 mm 3 mps 770 mmHg 62%
    19:00 +17°C° 0 mm 3 mps 770 mmHg 66%
    20:00 +16°C° 0 mm 3 mps 770 mmHg 70%
    21:00 +15°C° 0 mm 4 mps 770 mmHg 74%
    22:00 +14°C° 0 mm 4 mps 771 mmHg 78%
    23:00 +14°C° 0 mm 4 mps 771 mmHg 79%

    Tomorrow, 23 August, Friday

    Time Temperature Precipitation Wind Pressure Humidity
    00:00 +14°C° 0 mm 4 mps 771 mmHg 80%
    01:00 +14°C° 0 mm 4 mps 770 mmHg 80%
    02:00 +14°C° 0 mm 4 mps 770 mmHg 79%
    03:00 +14°C° 0 mm 4 mps 770 mmHg 78%
    04:00 +14°C° 0 mm 4 mps 770 mmHg 76%
    05:00 +15°C° 0 mm 4 mps 770 mmHg 74%
    06:00 +17°C° 0 mm 4 mps 770 mmHg 72%
    07:00 +18°C° 0 mm 4 mps 770 mmHg 70%
    08:00 +19°C° 0 mm 3 mps 770 mmHg 66%
    09:00 +21°C° 0 mm 3 mps 771 mmHg 61%
    10:00 +22°C° 0 mm 3 mps 771 mmHg 57%
    11:00 +24°C° 0 mm 2 mps 770 mmHg 54%
    12:00 +24°C° 0 mm 2 mps 770 mmHg 51%
    13:00 +25°C° 0 mm 1 mps 770 mmHg 48%
    14:00 +25°C° 0 mm 1 mps 770 mmHg 48%
    15:00 +25°C° 0 mm 1 mps 769 mmHg 48%
    16:00 +25°C° 0 mm 1 mps 769 mmHg 47%
    17:00 +23°C° 0 mm 1 mps 769 mmHg 53%
    18:00 +21°C° 0 mm 2 mps 769 mmHg 58%
    19:00 +19°C° 0 mm 2 mps 769 mmHg 63%
    20:00 +18°C° 0 mm 3 mps 769 mmHg 65%
    21:00 +18°C° 0 mm 3 mps 769 mmHg 67%
    22:00 +17°C° 0 mm 3 mps 769 mmHg 69%
    23:00 +17°C° 0 mm 3 mps 769 mmHg 71%

    Day after tomorrow, 24 August, Saturday

    Time Temperature Precipitation Wind Pressure Humidity
    00:00 +17°C° 0 mm 3 mps 769 mmHg 72%
    01:00 +16°C° 0 mm 3 mps 769 mmHg 74%
    02:00 +16°C° 0 mm 3 mps 769 mmHg 76%
    03:00 +16°C° 0 mm 3 mps 769 mmHg 78%
    04:00 +16°C° 0 mm 3 mps 769 mmHg 80%
    05:00 +17°C° 0 mm 3 mps 769 mmHg 77%
    06:00 +18°C° 0 mm 2 mps 768 mmHg 74%
    07:00 +19°C° 0 mm 2 mps 768 mmHg 71%
    08:00 +20°C° 0 mm 2 mps 768 mmHg 66%
    09:00 +23°C° 0 mm 1 mps 769 mmHg 61%
    10:00 +24°C° 0 mm 1 mps 769 mmHg 55%
    11:00 +25°C° 0 mm 1 mps 768 mmHg 53%
    12:00 +26°C° 0 mm 1 mps 768 mmHg 50%
    13:00 +26°C° 0 mm 2 mps 768 mmHg 47%
    14:00 +26°C° 0 mm 2 mps 768 mmHg 49%
    15:00 +26°C° 0 mm 2 mps 767 mmHg 50%
    16:00 +26°C° 0 mm 3 mps 767 mmHg 52%
    17:00 +24°C° 0 mm 3 mps 767 mmHg 58%
    18:00 +21°C° 0 mm 3 mps 767 mmHg 65%
    19:00 +19°C° 0 mm 4 mps 767 mmHg 72%
    20:00 +19°C° 0 mm 4 mps 767 mmHg 73%
    21:00 +18°C° 0 mm 4 mps 767 mmHg 75%
    22:00 +17°C° 0 mm 4 mps 768 mmHg 77%
    23:00 +17°C° 0 mm 3 mps 767 mmHg 77%

    25 August, Sunday

    Time Temperature Precipitation Wind Pressure Humidity
    00:00 +17°C° 0 mm 3 mps 767 mmHg 78%
    01:00 +16°C° 0 mm 3 mps 767 mmHg 78%
    02:00 +16°C° 0 mm 3 mps 767 mmHg 79%
    03:00 +16°C° 0 mm 3 mps 767 mmHg 79%
    04:00 +14°C° 0 mm 3 mps 767 mmHg 79%
    05:00 +17°C° 0 mm 4 mps 767 mmHg 77%
    06:00 +18°C° 0 mm 4 mps 767 mmHg 75%
    07:00 +19°C° 0 mm 4 mps 767 mmHg 72%
    08:00 +20°C° 0 mm 4 mps 768 mmHg 68%
    09:00 +22°C° 0 mm 4 mps 768 mmHg 63%
    10:00 +25°C° 0 mm 4 mps 768 mmHg 58%
    11:00 +25°C° 0 mm 4 mps 768 mmHg 56%
    12:00 +26°C° 0 mm 4 mps 768 mmHg 54%
    13:00 +27°C° 0 mm 4 mps 767 mmHg 52%
    14:00 +26°C° 0 mm 4 mps 767 mmHg 53%
    15:00 +26°C° 0 mm 4 mps 767 mmHg 53%
    16:00 +26°C° 0 mm 4 mps 767 mmHg 54%
    17:00 +25°C° 0 mm 4 mps 767 mmHg 61%
    18:00 +22°C° 0 mm 4 mps 767 mmHg 69%
    19:00 +20°C° 0 mm 5 mps 767 mmHg 76%
    20:00 +20°C° 0 mm 5 mps 767 mmHg 77%
    21:00 +19°C° 0 mm 5 mps 767 mmHg 78%
    22:00 +17°C° 0 mm 5 mps 767 mmHg 79%
    23:00 +17°C° 0 mm 5 mps 767 mmHg 79%

    26 August, Monday

    Time Temperature Precipitation Wind Pressure Humidity
    00:00 +17°C° 0 mm 5 mps 767 mmHg 80%
    01:00 +16°C° 0 mm 5 mps 767 mmHg 81%
    02:00 +16°C° 0 mm 5 mps 767 mmHg 81%
    03:00 +17°C° 0 mm 4 mps 767 mmHg 81%
    04:00 +17°C° 0 mm 4 mps 767 mmHg 81%
    05:00 +17°C° 0 mm 5 mps 767 mmHg 78%
    06:00 +17°C° 0 mm 5 mps 767 mmHg 74%
    07:00 +19°C° 0 mm 5 mps 767 mmHg 71%
    08:00 +21°C° 0 mm 5 mps 767 mmHg 67%
    09:00 +23°C° 0 mm 4 mps 767 mmHg 63%
    10:00 +25°C° 0 mm 4 mps 767 mmHg 59%
    11:00 +26°C° 0 mm 4 mps 766 mmHg 58%
    12:00 +27°C° 0 mm 4 mps 766 mmHg 57%
    13:00 +27°C° 0 mm 4 mps 766 mmHg 56%
    14:00 +27°C° 0 mm 4 mps 766 mmHg 58%
    15:00 +27°C° 0 mm 4 mps 765 mmHg 60%
    16:00 +27°C° 0 mm 4 mps 765 mmHg 62%
    17:00 +26°C° 0 mm 4 mps 765 mmHg 65%
    18:00 +23°C° 0 mm 4 mps 765 mmHg 69%
    19:00 +22°C° 0 mm 4 mps 765 mmHg 73%
    20:00 +22°C° 0 mm 4 mps 765 mmHg 74%
    21:00 +21°C° 0 mm 4 mps 765 mmHg 75%
    22:00 +20°C° 0 mm 4 mps 765 mmHg 76%
    23:00 +20°C° 0 mm 4 mps 765 mmHg 75%

    27 August, Tuesday

    Time Temperature Precipitation Wind Pressure Humidity
    00:00 +20°C° 0 mm 4 mps 765 mmHg 74%
    01:00 +19°C° 0 mm 4 mps 765 mmHg 73%
    02:00 +19°C° 0 mm 4 mps 765 mmHg 75%
    03:00 +19°C° 0 mm 3 mps 765 mmHg 77%
    04:00 +19°C° 0 mm 3 mps 765 mmHg 79%
    05:00 +19°C° 0 mm 3 mps 765 mmHg 77%
    06:00 +20°C° 0 mm 3 mps 765 mmHg 76%
    07:00 +21°C° 0 mm 4 mps 765 mmHg 74%
    08:00 +24°C° 0 mm 3 mps 765 mmHg 70%
    09:00 +26°C° 0 mm 3 mps 765 mmHg 65%
    10:00 +27°C° 0 mm 3 mps 765 mmHg 61%
    11:00 +28°C° 0 mm 2 mps 764 mmHg 58%
    12:00 +29°C° 0 mm 2 mps 764 mmHg 55%
    13:00 +30°C° 0 mm 2 mps 764 mmHg 52%
    14:00 +30°C° 0 mm 2 mps 764 mmHg 52%
    15:00 +30°C° 0 mm 2 mps 764 mmHg 52%
    16:00 +30°C° 0 mm 2 mps 763 mmHg 52%
    17:00 +28°C° 0 mm 3 mps 763 mmHg 58%
    18:00 +27°C° 0 mm 3 mps 763 mmHg 64%
    19:00 +25°C° 0 mm 3 mps 763 mmHg 70%
    20:00 +24°C° 0 mm 3 mps 763 mmHg 72%
    21:00 +23°C° 0 mm 4 mps 763 mmHg 73%
    22:00 +22°C° 0 mm 4 mps 763 mmHg 75%
    23:00 +21°C° 0 mm 4 mps 763 mmHg 76%
    Show more